Wind_Speed
23 27 28 31 34 37 39 42 44 41 45 45 47 47 41 34 31 29 29 30 32 37 40 43 46 48 49 50 54 56 59 65 70 75 80 86 91 103 110 112 115 115 117 122
27 29 30 33 36 37 40 44 49 48 47 50 51 43 37 25 22 28 32 33 36 39 41 44 48 53 54 57 59 64 69 74 78 80 83 86 88 90 97 103 115 124 124 121
30 33 32 36 38 38 41 44 48 52 55 56 51 42 39 31 23 26 31 32 37 42 45 46 50 56 59 61 66 69 73 77 80 82 84 87 89 95 98 99 104 108 113 121
33 35 33 38 39 43 44 46 49 53 53 60 56 40 42 30 28 29 31 34 38 42 47 52 57 59 60 62 64 65 67 70 73 77 80 83 87 92 96 104 106 102 104 108
33 36 37 37 39 44 46 49 51 55 57 56 53 40 36 36 38 39 39 40 43 45 48 52 55 56 55 58 62 64 66 69 73 78 80 81 85 90 96 102 106 110 109 107
35 38 43 41 40 43 48 52 52 55 60 55 46 36 36 40 43 43 43 42 44 48 50 50 50 51 52 55 59 64 67 68 70 71 74 76 82 86 90 92 97 99 101 102
36 39 44 45 44 44 47 51 55 61 58 54 43 38 39 40 41 39 43 44 43 43 47 50 52 54 58 62 66 69 72 74 77 78 77 75 74 77 79 79 82 84 88 91
38 40 43 46 48 49 50 54 55 59 53 45 40 41 43 40 41 39 40 43 48 51 52 58 60 63 69 72 77 80 79 76 77 79 79 74 71 73 73 71 69 67 69 73
41 42 41 44 46 49 51 52 56 55 44 41 41 44 42 42 40 44 49 53 55 58 63 67 71 73 75 77 81 78 73 73 74 71 71 70 68 64 58 54 53 51 55 57
44 45 41 44 47 51 54 55 57 48 39 40 43 41 42 40 41 43 44 50 55 60 66 72 74 75 78 83 80 76 74 72 68 67 66 64 61 57 52 48 48 45 47 46
44 45 46 45 47 51 55 59 53 42 37 37 40 47 44 42 46 47 49 54 59 67 71 76 75 77 82 79 75 73 71 73 71 68 64 62 57 54 51 48 46 45 44 44
45 47 50 50 48 51 56 60 45 38 40 38 36 43 43 45 47 49 53 60 65 70 73 77 77 84 81 78 75 75 75 74 72 67 60 57 56 54 53 49 47 45 43 42
46 48 52 52 52 52 59 54 42 37 38 37 37 42 45 51 54 58 59 61 66 71 75 80 83 86 80 78 79 79 77 70 64 60 53 49 48 48 51 51 48 46 44 43
49 49 51 52 53 54 56 48 41 41 39 36 39 41 45 49 51 54 60 65 67 74 75 80 84 81 79 78 78 76 70 63 56 51 47 44 42 41 41 44 46 47 46 44
49 50 50 55 54 57 49 40 40 39 37 34 37 38 44 48 52 56 59 64 68 73 81 82 84 76 73 76 73 70 64 59 52 47 41 38 35 34 33 35 35 39 43 45
49 49 51 54 53 56 45 41 40 39 38 38 38 41 45 50 53 56 62 67 72 77 84 83 76 72 74 71 70 63 60 56 49 44 41 37 33 29 27 28 29 28 31 36
50 53 53 52 55 52 41 40 40 37 37 37 40 45 48 53 57 61 66 68 73 77 82 82 74 73 69 66 59 54 54 52 49 45 40 35 31 27 23 21 20 20 22 24
51 51 54 55 56 45 37 38 36 33 35 37 40 44 47 52 57 61 66 69 74 82 82 79 70 68 62 60 50 49 49 48 48 46 40 35 30 27 24 19 16 12 11 13
53 53 54 53 49 39 35 31 32 34 37 39 42 46 48 53 60 63 68 73 77 83 80 72 67 62 60 52 44 45 46 46 44 41 37 34 30 27 22 18 14 10 7 7
55 56 55 54 42 34 34 34 33 32 35 39 42 45 50 54 58 63 66 75 77 82 81 70 67 61 60 46 40 42 46 45 42 38 34 30 26 22 21 19 16 14 11 7
58 57 60 55 39 32 31 31 31 34 36 40 43 45 49 54 59 63 67 76 79 85 80 72 69 61 56 40 37 39 42 43 42 39 31 28 28 22 20 21 19 18 14 11
58 58 52 44 36 32 31 32 32 35 38 41 44 47 51 56 61 67 71 75 80 86 81 75 71 60 53 37 34 36 38 38 38 36 32 32 31 28 25 27 23 21 20 18
55 49 44 39 35 31 34 34 35 36 39 42 45 49 53 57 62 68 70 74 79 85 81 76 69 59 50 33 31 34 35 34 34 32 32 30 26 22 24 28 28 25 24 23
48 42 40 37 36 31 33 33 37 40 42 46 49 52 55 59 63 67 70 76 79 85 81 76 67 58 50 33 28 31 32 31 29 27 24 24 21 23 24 28 28 26 28 28
48 44 38 38 38 34 34 34 36 39 43 46 50 52 57 60 63 66 71 75 79 82 81 74 66 57 48 35 24 26 29 27 25 23 20 16 22 25 26 28 29 28 27 30
49 45 39 40 39 40 39 39 39 41 44 46 50 52 56 60 63 66 70 73 79 80 82 74 64 55 47 34 21 22 25 24 19 18 16 16 20 22 26 29 31 30 33 34
Wind_Direction
305 313 316 315 311 317 321 317 316 317 320 320 324 325 320 315 305 297 288 283 274 274 276 277 277 278 277 276 275 272 268 264 262 260 259 259 256 253 250 248 248 250 253 254
305 311 317 315 317 319 320 320 320 323 325 326 328 326 318 321 307 299 294 294 292 284 282 279 280 279 279 279 279 279 278 277 276 273 271 267 262 261 262 259 255 254 256 259
309 312 318 313 318 321 321 321 324 326 326 328 332 326 321 324 308 292 288 289 284 286 285 288 285 282 281 280 277 276 277 279 280 281 280 279 277 274 264 260 261 258 257 257
309 313 316 316 319 321 322 324 326 328 328 329 330 326 322 318 307 301 300 295 291 289 288 287 287 287 287 287 286 285 283 281 280 279 277 277 276 276 278 277 270 259 258 259
310 313 315 318 320 320 321 325 326 328 328 328 327 325 320 320 317 312 304 301 300 300 298 298 297 295 291 288 286 284 282 278 276 273 271 271 271 271 271 273 273 273 271 264
312 312 315 319 320 323 321 322 325 328 327 326 326 321 318 318 316 318 315 309 304 302 300 299 299 298 298 297 294 291 289 285 283 281 277 274 273 273 272 271 271 272 273 271
311 314 315 317 320 321 321 323 325 327 326 324 324 321 320 320 317 315 309 308 308 309 312 313 312 310 310 309 307 306 303 300 297 294 291 288 284 280 278 275 272 271 270 270
309 313 316 316 319 321 323 325 325 325 322 320 323 321 320 322 318 315 319 323 324 325 326 325 322 321 319 317 316 311 306 302 299 298 293 290 286 284 283 280 276 273 270 269
308 312 316 313 316 318 321 320 323 322 320 318 321 321 325 325 328 330 334 333 331 330 327 325 326 323 319 315 313 310 305 301 298 296 295 293 291 287 281 274 272 272 270 270
309 310 314 314 316 318 321 323 326 322 319 318 319 320 327 331 330 330 331 329 330 327 324 324 324 320 319 316 314 312 308 303 302 299 297 294 292 289 282 276 273 272 272 273
306 308 312 315 318 320 321 323 325 322 320 319 322 320 332 334 333 333 330 328 327 327 325 325 322 321 321 319 316 313 312 310 307 302 297 292 287 284 282 278 276 274 273 273
307 308 311 315 320 321 321 325 325 323 319 321 322 319 331 328 329 332 330 329 328 326 324 325 325 327 325 323 322 320 317 314 310 306 301 293 284 278 275 273 270 268 268 268
305 308 312 315 322 323 323 325 324 324 323 319 315 320 327 329 332 333 331 328 326 327 327 329 330 330 329 327 326 324 321 319 315 311 306 299 291 283 275 269 266 264 262 262
304 307 311 315 322 323 324 321 323 325 325 323 319 322 324 326 330 331 331 332 333 331 332 331 332 332 330 330 328 326 326 325 323 317 312 306 297 289 282 273 266 259 255 255
303 307 311 315 321 323 321 318 317 324 322 318 318 324 325 328 331 332 333 335 335 336 336 336 334 332 331 331 330 332 333 332 332 328 323 316 309 300 293 284 276 266 256 251
302 308 309 314 320 322 317 315 319 322 324 318 328 331 331 329 333 334 335 337 337 337 336 336 334 334 335 333 334 335 340 342 341 339 335 329 323 316 305 295 285 274 263 256
302 306 310 315 319 319 315 318 320 329 324 324 330 332 332 332 336 338 337 337 337 337 338 337 338 337 335 337 335 338 344 349 352 351 349 343 338 330 321 309 297 286 276 264
301 304 310 315 318 312 315 315 324 325 321 327 330 332 334 332 334 337 337 338 338 343 341 341 339 337 339 338 338 343 347 354 357 357 355 354 353 351 345 333 320 306 289 273
296 300 305 311 313 303 309 317 319 325 325 331 332 332 333 335 336 336 336 340 341 343 343 343 343 343 341 341 342 344 349 356 357 357 360 2 7 9 9 6 358 345 325 299
294 296 301 307 304 292 304 313 318 323 327 328 329 334 335 336 334 336 339 342 341 344 347 347 347 347 344 345 342 347 350 359 2 1 359 3 10 17 25 30 36 40 41 38
292 298 301 303 298 294 298 302 313 320 324 328 330 335 333 334 334 336 341 344 344 347 348 351 349 349 346 344 342 350 353 357 4 6 4 4 5 11 35 45 46 48 48 48
292 294 296 293 289 292 294 300 311 317 320 325 327 332 331 335 335 338 341 341 344 346 350 352 349 348 345 343 343 353 357 360 4 5 10 16 19 26 46 46 47 55 53 50
287 288 284 277 276 283 288 296 306 312 316 321 325 330 334 336 336 339 340 342 344 349 351 351 349 346 346 345 343 354 359 3 6 8 11 17 23 49 60 65 65 62 58 57
283 281 278 269 272 275 278 292 301 310 315 320 324 331 333 335 335 335 337 340 342 348 350 350 348 345 347 346 342 354 360 1 12 11 19 22 49 56 68 71 69 69 68 68
279 276 274 267 271 272 280 290 297 303 309 316 321 328 329 333 332 335 336 339 341 345 350 350 348 345 346 347 340 352 0 5 9 22 38 44 61 70 71 72 69 68 68 71
274 275 270 267 271 276 282 291 300 302 306 313 317 323 326 330 332 333 336 338 341 342 349 349 348 346 344 345 336 350 2 6 16 29 51 69 73 76 83 79 76 74 78 78
Height
10898 10895 10892 10888 10882 10879 10872 10864 10861 10862 10852 10846 10840 10831 10823 10817 10813 10811 10808 10804 10801 10795 10792 10788 10784 10781 10777 10775 10769 10765 10761 10755 10747 10740 10736 10733 10730 10729 10723 10720 10713 10710 10709 10707
10891 10890 10887 10881 10876 10872 10866 10856 10848 10846 10843 10834 10827 10821 10815 10815 10809 10802 10796 10793 10789 10786 10783 10779 10776 10769 10765 10761 10758 10751 10742 10733 10726 10721 10714 10709 10706 10703 10694 10688 10684 10682 10681 10680
10885 10882 10881 10874 10869 10866 10860 10852 10844 10835 10825 10819 10816 10806 10805 10804 10802 10796 10790 10787 10782 10776 10770 10768 10763 10755 10751 10748 10741 10735 10728 10719 10707 10698 10691 10680 10671 10661 10659 10656 10653 10657 10656 10652
10880 10876 10875 10868 10862 10856 10851 10844 10836 10828 10821 10807 10801 10800 10789 10793 10790 10788 10784 10779 10773 10769 10764 10756 10748 10741 10737 10728 10719 10714 10708 10700 10689 10679 10670 10662 10651 10639 10630 10616 10613 10622 10629 10627
10874 10869 10866 10863 10857 10848 10841 10835 10829 10819 10812 10805 10794 10790 10783 10778 10774 10773 10771 10768 10761 10755 10748 10741 10735 10728 10722 10712 10702 10696 10687 10677 10668 10660 10651 10642 10633 10623 10610 10598 10590 10585 10589 10591
10868 10862 10856 10853 10851 10843 10833 10825 10822 10814 10803 10797 10791 10786 10779 10771 10765 10759 10755 10752 10748 10743 10737 10731 10723 10715 10707 10697 10685 10673 10661 10651 10641 10633 10624 10616 10605 10593 10585 10577 10567 10558 10556 10556
10863 10856 10849 10842 10841 10837 10829 10819 10809 10802 10795 10786 10782 10777 10772 10768 10760 10755 10749 10743 10737 10730 10723 10714 10705 10695 10684 10671 10659 10645 10632 10621 10610 10597 10589 10581 10573 10563 10554 10548 10542 10536 10530 10525
10856 10852 10844 10835 10830 10824 10819 10810 10803 10794 10786 10779 10774 10768 10763 10758 10753 10745 10738 10729 10720 10711 10701 10691 10682 10672 10659 10644 10631 10621 10610 10597 10585 10574 10562 10553 10545 10537 10530 10522 10515 10510 10506 10503
10846 10845 10841 10833 10827 10819 10813 10808 10800 10787 10778 10770 10766 10760 10755 10748 10739 10729 10720 10710 10701 10694 10685 10675 10664 10652 10641 10629 10614 10600 10587 10575 10562 10549 10536 10525 10518 10512 10507 10501 10495 10492 10488 10486
10836 10833 10835 10827 10820 10811 10805 10798 10791 10780 10773 10765 10759 10754 10750 10742 10733 10726 10718 10709 10699 10688 10676 10664 10652 10638 10624 10608 10591 10575 10561 10548 10537 10524 10512 10502 10493 10487 10483 10480 10476 10474 10471 10470
10830 10824 10823 10822 10814 10804 10794 10788 10780 10772 10767 10761 10751 10738 10740 10734 10725 10718 10711 10701 10690 10677 10663 10650 10638 10624 10607 10588 10570 10553 10536 10521 10509 10497 10488 10479 10473 10467 10462 10459 10457 10456 10455 10454
10822 10817 10811 10810 10806 10797 10788 10779 10771 10765 10758 10752 10748 10737 10734 10728 10721 10714 10704 10691 10678 10666 10653 10637 10619 10601 10582 10563 10545 10529 10514 10499 10484 10472 10463 10454 10448 10443 10440 10439 10439 10439 10439 10439
10815 10809 10801 10799 10796 10786 10777 10770 10765 10760 10754 10747 10741 10733 10725 10716 10708 10701 10692 10685 10673 10656 10637 10619 10599 10580 10562 10544 10527 10510 10494 10479 10464 10452 10442 10433 10426 10421 10418 10417 10419 10421 10423 10424
10805 10802 10794 10788 10787 10779 10767 10760 10755 10751 10745 10740 10731 10726 10720 10713 10706 10698 10685 10671 10657 10642 10626 10609 10589 10567 10549 10532 10514 10497 10479 10462 10448 10435 10424 10416 10408 10403 10400 10398 10399 10400 10404 10407
10796 10792 10786 10781 10775 10769 10764 10757 10750 10746 10741 10736 10730 10723 10715 10706 10698 10688 10677 10663 10649 10631 10612 10593 10576 10558 10540 10521 10504 10484 10467 10451 10437 10424 10413 10404 10396 10390 10386 10383 10382 10382 10385 10389
10787 10783 10778 10773 10767 10759 10752 10748 10744 10739 10733 10726 10721 10715 10706 10697 10690 10680 10666 10651 10633 10616 10601 10585 10566 10546 10529 10510 10493 10477 10462 10445 10430 10417 10406 10397 10388 10381 10377 10373 10371 10370 10371 10374
10774 10771 10768 10764 10759 10752 10745 10739 10735 10731 10724 10718 10712 10704 10696 10686 10676 10666 10654 10642 10628 10614 10595 10573 10552 10534 10519 10503 10488 10474 10459 10444 10429 10415 10403 10394 10385 10378 10371 10367 10363 10362 10362 10364
10766 10762 10758 10754 10749 10741 10740 10732 10729 10726 10720 10714 10707 10699 10691 10681 10671 10660 10648 10635 10620 10601 10581 10562 10544 10527 10511 10497 10482 10470 10458 10445 10429 10416 10404 10393 10384 10376 10369 10364 10361 10358 10357 10358
10758 10755 10752 10750 10743 10734 10732 10731 10724 10719 10711 10706 10699 10691 10683 10673 10660 10650 10638 10624 10608 10592 10576 10556 10538 10520 10507 10491 10478 10469 10457 10444 10431 10419 10407 10396 10386 10378 10371 10365 10361 10358 10357 10356
10747 10744 10743 10744 10739 10731 10725 10721 10718 10714 10708 10701 10693 10685 10674 10666 10656 10644 10632 10618 10603 10587 10567 10548 10530 10513 10499 10486 10477 10467 10455 10444 10432 10421 10411 10401 10391 10383 10376 10370 10365 10361 10359 10358
10735 10732 10728 10726 10728 10723 10719 10716 10712 10707 10702 10694 10686 10678 10670 10660 10650 10639 10625 10610 10593 10577 10559 10539 10524 10509 10497 10485 10477 10467 10457 10446 10436 10426 10416 10406 10398 10389 10382 10376 10371 10367 10364 10361
10725 10721 10717 10714 10715 10714 10710 10708 10705 10700 10694 10688 10680 10673 10664 10654 10642 10628 10614 10601 10586 10572 10552 10534 10521 10508 10497 10485 10476 10469 10459 10450 10440 10431 10423 10414 10405 10398 10390 10385 10380 10374 10370 10367
10714 10713 10710 10708 10707 10707 10702 10699 10696 10693 10688 10681 10674 10666 10656 10645 10633 10620 10609 10595 10582 10567 10547 10534 10521 10507 10497 10484 10476 10470 10462 10453 10445 10436 10429 10422 10415 10409 10401 10393 10389 10385 10380 10375
10699 10700 10699 10698 10698 10699 10695 10692 10687 10683 10678 10672 10665 10657 10647 10638 10626 10615 10603 10590 10576 10562 10546 10531 10517 10505 10495 10484 10476 10471 10465 10456 10449 10442 10436 10430 10425 10419 10412 10404 10399 10395 10391 10386
10683 10686 10688 10687 10688 10689 10687 10685 10682 10677 10671 10665 10657 10649 10640 10632 10621 10610 10597 10584 10571 10558 10545 10530 10516 10504 10495 10485 10477 10472 10467 10461 10453 10448 10442 10438 10434 10429 10423 10417 10412 10408 10404 10400
10670 10674 10677 10676 10677 10675 10674 10672 10671 10668 10663 10657 10650 10644 10635 10626 10615 10604 10591 10579 10567 10554 10542 10528 10515 10503 10496 10486 10478 10473 10469 10464 10458 10453 10448 10446 10443 10439 10432 10428 10424 10421 10417 10414